GW7038 Weather Reports


Display with metric or nautical units.
time (UTC)temp
F
wind
direction
speed
MPH
gust
MPH
rain 1hr
in
rain 24hr
in
rain mn
in
humidity
%
barometer
mb
20260906212106 84 166 6.0 14.0 0.00 0.00 0.00 36 1002.7
20260906211907 83 189 5.0 10.0 0.00 0.00 0.00 36 1002.7
20260906211707 83 92 5.0 14.0 0.00 0.00 0.00 35 1002.7
20260906211506 84 106 5.0 14.0 0.00 0.00 0.00 35 1002.7
20260906210931 84 153 5.0 14.0 0.00 0.00 0.00 36 1002.7
20260906210724 84 90 5.0 14.0 0.00 0.00 0.00 36 1002.7
20260906210514 84 104 5.0 14.0 0.00 0.00 0.00 37 1002.8
20260906210304 84 76 5.0 14.0 0.00 0.00 0.00 37 1002.8
20260906205728 83 115 5.0 13.0 0.00 0.00 0.00 37 1002.8
20260906205522 83 169 5.0 13.0 0.00 0.00 0.00 37 1002.9
20260906205319 83 165 4.0 14.0 0.00 0.00 0.00 38 1002.9
20260906205108 83 163 4.0 14.0 0.00 0.00 0.00 37 1003.0
20260906204858 83 165 4.0 14.0 0.00 0.00 0.00 37 1003.1
20260906204327 84 105 5.0 14.0 0.00 0.00 0.00 38 1003.2
20260906204124 84 170 5.0 14.0 0.00 0.00 0.00 37 1003.2
20260906203914 83 160 5.0 14.0 0.00 0.00 0.00 38 1003.4
20260906203346 83 186 5.0 13.0 0.00 0.00 0.00 37 1003.2
20260906202821 84 121 5.0 12.0 0.00 0.00 0.00 37 1003.3
20260906202618 84 155 5.0 12.0 0.00 0.00 0.00 37 1003.4
20260906202418 84 201 4.0 11.0 0.00 0.00 0.00 37 1003.3
20260906202218 84 169 4.0 11.0 0.00 0.00 0.00 37 1003.3
20260906202014 84 141 4.0 11.0 0.00 0.00 0.00 36 1003.3
20260906201811 84 128 4.0 11.0 0.00 0.00 0.00 36 1003.4
20260906201603 84 222 4.0 11.0 0.00 0.00 0.00 35 1003.3
20260906201354 84 13 4.0 11.0 0.00 0.00 0.00 36 1003.4
20260906200512 83 85 3.0 15.0 0.00 0.00 0.00 38 1003.4
20260906200309 82 92 4.0 15.0 0.00 0.00 0.00 38 1003.4
20260906195745 83 205 6.0 15.0 0.00 0.00 0.00 37 1003.5
20260906195539 83 113 6.0 15.0 0.00 0.00 0.00 37 1003.5
20260906195333 83 75 6.0 15.0 0.00 0.00 0.00 37 1003.5
20260906195125 83 128 5.0 15.0 0.00 0.00 0.00 38 1003.5
20260906194605 84 160 5.0 12.0 0.00 0.00 0.00 35 1003.6
20260906194405 84 161 5.0 15.0 0.00 0.00 0.00 35 1003.6
20260906194201 84 202 5.0 15.0 0.00 0.00 0.00 34 1003.7
20260906193950 84 194 5.0 15.0 0.00 0.00 0.00 34 1003.6
20260906193751 83 193 5.0 15.0 0.00 0.00 0.00 34 1003.7
20260906193548 83 214 4.0 15.0 0.00 0.00 0.00 36 1003.6
20260906193343 83 150 5.0 15.0 0.00 0.00 0.00 35 1003.7
20260906193136 83 50 4.0 15.0 0.00 0.00 0.00 36 1003.6
20260906192929 83 134 4.0 15.0 0.00 0.00 0.00 35 1003.8
20260906192720 83 155 5.0 15.0 0.00 0.00 0.00 34 1003.8
20260906192512 83 128 5.0 15.0 0.00 0.00 0.00 34 1003.9
20260906192311 83 107 5.0 12.0 0.00 0.00 0.00 34 1003.9
20260906192111 83 121 5.0 12.0 0.00 0.00 0.00 33 1003.9
20260906191905 83 136 5.0 12.0 0.00 0.00 0.00 33 1003.9
20260906191658 83 134 4.0 12.0 0.00 0.00 0.00 34 1004.0
20260906191456 83 69 4.0 12.0 0.00 0.00 0.00 35 1004.0
20260906191249 83 138 4.0 12.0 0.00 0.00 0.00 36 1004.0
20260906191050 83 86 4.0 12.0 0.00 0.00 0.00 35 1004.1
20260906190842 83 185 4.0 12.0 0.00 0.00 0.00 36 1004.1
20260906190643 83 186 4.0 12.0 0.00 0.00 0.00 34 1004.2
20260906190118 82 163 4.0 11.0 0.00 0.00 0.00 35 1004.2
20260906185912 82 171 4.0 11.0 0.00 0.00 0.00 34 1004.4
20260906185345 82 159 4.0 8.0 0.00 0.00 0.00 35 1004.5
20260906185139 82 69 4.0 11.0 0.00 0.00 0.00 36 1004.5
20260906184937 82 150 5.0 11.0 0.00 0.00 0.00 35 1004.6
20260906184729 82 78 5.0 11.0 0.00 0.00 0.00 35 1004.5
20260906184523 82 56 5.0 11.0 0.00 0.00 0.00 35 1004.6
20260906184313 82 212 5.0 11.0 0.00 0.00 0.00 35 1004.7
20260906184108 82 102 5.0 11.0 0.00 0.00 0.00 36 1004.7
20260906183900 82 175 4.0 11.0 0.00 0.00 0.00 35 1004.8
20260906183652 82 218 5.0 11.0 0.00 0.00 0.00 36 1004.8
20260906183127 82 136 4.0 10.0 0.00 0.00 0.00 36 1004.9
20260906182923 82 136 4.0 10.0 0.00 0.00 0.00 36 1005.0
20260906182715 82 126 3.0 10.0 0.00 0.00 0.00 37 1005.0
20260906181841 81 113 4.0 9.0 0.00 0.00 0.00 37 1005.2
20260906181638 81 111 4.0 10.0 0.00 0.00 0.00 38 1005.2
20260906181436 81 113 4.0 10.0 0.00 0.00 0.00 39 1005.3
20260906181234 81 29 4.0 10.0 0.00 0.00 0.00 37 1005.3
20260906181028 80 130 4.0 10.0 0.00 0.00 0.00 38 1005.2
20260906180824 80 108 4.0 10.0 0.00 0.00 0.00 37 1005.4
20260906180617 80 137 4.0 10.0 0.00 0.00 0.00 38 1005.4
20260906180417 80 115 4.0 10.0 0.00 0.00 0.00 39 1005.4
20260906180208 80 108 4.0 10.0 0.00 0.00 0.00 37 1005.5
20260906180006 80 92 4.0 10.0 0.00 0.00 0.00 40 1005.5
20260906175805 80 47 4.0 10.0 0.00 0.00 0.00 38 1005.5
20260906175244 80 71 3.0 9.0 0.00 0.00 0.00 37 1005.6
20260906175044 80 57 3.0 9.0 0.00 0.00 0.00 37 1005.7
20260906174833 80 138 3.0 9.0 0.00 0.00 0.00 38 1005.6
20260906174312 80 66 4.0 9.0 0.00 0.00 0.00 37 1005.7
20260906173431 80 93 3.0 9.0 0.00 0.00 0.00 37 1005.8
20260906173225 80 112 3.0 9.0 0.00 0.00 0.00 37 1005.8
20260906173021 80 112 2.0 9.0 0.00 0.00 0.00 37 1005.8
20260906172816 80 111 2.0 9.0 0.00 0.00 0.00 37 1005.8
20260906172614 80 166 3.0 9.0 0.00 0.00 0.00 38 1005.8
20260906172410 79 170 3.0 9.0 0.00 0.00 0.00 38 1005.8
20260906172201 79 27 3.0 9.0 0.00 0.00 0.00 37 1005.8
20260906171956 79 27 3.0 9.0 0.00 0.00 0.00 37 1005.8
20260906171755 79 48 3.0 9.0 0.00 0.00 0.00 38 1005.9
20260906171554 79 45 2.0 9.0 0.00 0.00 0.00 38 1005.9
20260906171355 79 40 2.0 9.0 0.00 0.00 0.00 39 1005.9
20260906170822 79 98 3.0 10.0 0.00 0.00 0.00 38 1006.0
20260906170612 79 173 3.0 10.0 0.00 0.00 0.00 39 1006.0
20260906170047 79 44 5.0 10.0 0.00 0.00 0.00 38 1006.1
20260906165839 79 40 5.0 10.0 0.00 0.00 0.00 38 1006.1
20260906165634 79 32 4.0 10.0 0.00 0.00 0.00 39 1006.0
20260906165435 79 142 4.0 10.0 0.00 0.00 0.00 38 1006.1
20260906165227 79 94 4.0 10.0 0.00 0.00 0.00 40 1006.1
20260906165023 78 83 4.0 9.0 0.00 0.00 0.00 38 1006.1
20260906164814 78 66 3.0 9.0 0.00 0.00 0.00 38 1006.1
20260906164609 78 139 3.0 9.0 0.00 0.00 0.00 38 1006.1
20260906164407 78 92 3.0 9.0 0.00 0.00 0.00 38 1006.1
20260906163842 78 31 3.0 9.0 0.00 0.00 0.00 39 1006.1
20260906163632 78 30 4.0 9.0 0.00 0.00 0.00 40 1006.2
20260906163111 77 25 3.0 9.0 0.00 0.00 0.00 40 1006.1
20260906162905 77 41 3.0 9.0 0.00 0.00 0.00 40 1006.1
20260906162707 77 38 3.0 8.0 0.00 0.00 0.00 41 1006.1
20260906162139 77 90 3.0 8.0 0.00 0.00 0.00 41 1006.0
20260906161933 77 55 3.0 8.0 0.00 0.00 0.00 41 1006.2
20260906161734 77 51 3.0 8.0 0.00 0.00 0.00 41 1006.1
20260906161525 76 49 4.0 8.0 0.00 0.00 0.00 42 1006.1
20260906161316 76 19 3.0 8.0 0.00 0.00 0.00 42 1006.2
20260906160744 76 64 3.0 8.0 0.00 0.00 0.00 41 1006.2
20260906160541 76 59 3.0 8.0 0.00 0.00 0.00 43 1006.2
20260906160331 76 37 3.0 8.0 0.00 0.00 0.00 42 1006.2
20260906155446 75 54 4.0 9.0 0.00 0.00 0.00 42 1006.2
20260906155243 75 96 4.0 9.0 0.00 0.00 0.00 42 1006.1
20260906155035 75 39 4.0 9.0 0.00 0.00 0.00 43 1006.1
20260906154505 75 149 3.0 9.0 0.00 0.00 0.00 43 1006.0
20260906154256 75 150 4.0 9.0 0.00 0.00 0.00 42 1006.0
20260906154048 75 114 4.0 9.0 0.00 0.00 0.00 42 1006.0
20260906153523 74 23 3.0 8.0 0.00 0.00 0.00 40 1006.0
20260906153316 74 34 3.0 7.0 0.00 0.00 0.00 42 1006.0
20260906153109 74 24 3.0 7.0 0.00 0.00 0.00 42 1006.1
20260906152909 73 59 3.0 8.0 0.00 0.00 0.00 44 1005.9
20260906152707 73 51 3.0 8.0 0.00 0.00 0.00 46 1006.0
20260906152503 73 9 3.0 8.0 0.00 0.00 0.00 44 1006.0
20260906152255 73 22 4.0 8.0 0.00 0.00 0.00 45 1006.0
20260906152045 72 36 3.0 8.0 0.00 0.00 0.00 44 1006.1
20260906151841 72 5 4.0 8.0 0.00 0.00 0.00 45 1006.1
20260906151638 72 5 4.0 8.0 0.00 0.00 0.00 45 1006.1
20260906151439 72 13 4.0 8.0 0.00 0.00 0.00 45 1006.1
20260906151229 71 44 4.0 8.0 0.00 0.00 0.00 45 1006.2
20260906151029 71 40 4.0 7.0 0.00 0.00 0.00 45 1006.2
20260906150826 71 66 3.0 7.0 0.00 0.00 0.00 46 1006.1
20260906150616 71 65 3.0 7.0 0.00 0.00 0.00 46 1006.1
20260906150054 70 5 2.0 7.0 0.00 0.00 0.00 48 1006.1
20260906145846 69 337 1.0 7.0 0.00 0.00 0.00 50 1006.1
20260906145643 69 336 1.0 7.0 0.00 0.00 0.00 50 1006.1
20260906145437 69 336 2.0 7.0 0.00 0.00 0.00 52 1006.2
20260906145231 69 336 2.0 7.0 0.00 0.00 0.00 52 1006.2
20260906145028 68 291 3.0 7.0 0.00 0.00 0.00 52 1006.2
20260906144500 68 292 3.0 7.0 0.00 0.00 0.00 52 1006.1
20260906144253 68 289 3.0 6.0 0.00 0.00 0.00 53 1006.2
20260906144046 68 290 3.0 6.0 0.00 0.00 0.00 53 1006.2
20260906143840 68 282 2.0 6.0 0.00 0.00 0.00 53 1006.2
20260906143633 68 282 2.0 6.0 0.00 0.00 0.00 53 1006.2
20260906143427 67 282 2.0 6.0 0.00 0.00 0.00 55 1006.2
20260906143218 67 298 3.0 6.0 0.00 0.00 0.00 56 1006.1
20260906143019 67 299 2.0 6.0 0.00 0.00 0.00 55 1006.2
20260906142817 67 0 3.0 6.0 0.00 0.00 0.00 54 1006.1
20260906142259 66 288 3.0 5.0 0.00 0.00 0.00 57 1006.1
20260906142054 66 288 3.0 6.0 0.00 0.00 0.00 56 1006.1
20260906141854 66 281 3.0 6.0 0.00 0.00 0.00 57 1006.0
20260906141651 65 281 3.0 6.0 0.00 0.00 0.00 58 1006.1
20260906141445 65 279 3.0 6.0 0.00 0.00 0.00 60 1006.0
20260906141246 64 277 3.0 6.0 0.00 0.00 0.00 60 1006.1
20260906141040 64 298 2.0 6.0 0.00 0.00 0.00 60 1006.1
20260906140833 64 317 2.0 6.0 0.00 0.00 0.00 61 1006.0
20260906140302 63 316 1.0 6.0 0.00 0.00 0.00 62 1006.2
20260906140100 62 313 0.0 4.0 0.00 0.00 0.00 64 1006.2
20260906135541 61 313 0.0 0.0 0.00 0.00 0.00 65 1006.2
20260906135339 61 313 0.0 0.0 0.00 0.00 0.00 65 1006.3
20260906135130 61 313 0.0 0.0 0.00 0.00 0.00 64 1006.3
20260906134919 61 313 1.0 1.0 0.00 0.00 0.00 64 1006.2
20260906134718 61 313 1.0 1.0 0.00 0.00 0.00 64 1006.2
20260906134510 61 313 1.0 0.0 0.00 0.00 0.00 64 1006.2
20260906133944 60 313 1.0 5.0 0.00 0.00 0.00 65 1006.2
20260906133742 60 313 1.0 4.0 0.00 0.00 0.00 65 1006.1
20260906133532 60 313 1.0 4.0 0.00 0.00 0.00 65 1006.2
20260906133330 60 313 1.0 4.0 0.00 0.00 0.00 65 1006.2
20260906133125 60 313 1.0 4.0 0.00 0.00 0.00 65 1006.2
20260906132925 60 313 1.0 4.0 0.00 0.00 0.00 65 1006.2
20260906132721 60 313 1.0 4.0 0.00 0.00 0.00 65 1006.1
20260906132511 59 313 1.0 4.0 0.00 0.00 0.00 65 1006.1
20260906132306 59 313 1.0 4.0 0.00 0.00 0.00 65 1006.1
20260906132056 59 314 0.0 4.0 0.00 0.00 0.00 65 1006.1
20260906131851 59 314 0.0 4.0 0.00 0.00 0.00 65 1006.1
20260906131646 59 314 0.0 4.0 0.00 0.00 0.00 65 1006.1
20260906131441 59 314 1.0 4.0 0.00 0.00 0.00 65 1006.0
20260906131241 59 314 1.0 4.0 0.00 0.00 0.00 65 1006.0
20260906131032 59 313 1.0 4.0 0.00 0.00 0.00 65 1006.0
20260906130829 59 299 1.0 4.0 0.00 0.00 0.00 65 1006.0
20260906130307 59 299 0.0 4.0 0.00 0.00 0.00 65 1006.0
20260906130057 59 299 0.0 4.0 0.00 0.00 0.00 65 1006.0
20260906125847 59 299 0.0 4.0 0.00 0.00 0.00 65 1006.1
20260906125323 59 296 1.0 4.0 0.00 0.00 0.00 65 1006.0
20260906125117 59 296 0.0 4.0 0.00 0.00 0.00 65 1006.0
20260906124912 59 296 0.0 4.0 0.00 0.00 0.00 65 1006.0
20260906124708 59 296 0.0 4.0 0.00 0.00 0.00 65 1006.0
20260906124510 59 296 0.0 4.0 0.00 0.00 0.00 65 1006.1
20260906124305 59 296 0.0 4.0 0.00 0.00 0.00 65 1006.1
20260906124104 59 296 0.0 4.0 0.00 0.00 0.00 65 1006.1
20260906123857 59 296 0.0 4.0 0.00 0.00 0.00 65 1006.1
20260906123653 58 296 0.0 4.0 0.00 0.00 0.00 65 1006.1
20260906123446 58 294 0.0 3.0 0.00 0.00 0.00 65 1006.1
20260906123237 58 293 0.0 0.0 0.00 0.00 0.00 65 1006.1
20260906123027 58 293 1.0 0.0 0.00 0.00 0.00 66 1006.2
20260906122818 58 293 2.0 5.0 0.00 0.00 0.00 66 1006.1
20260906122608 58 290 2.0 5.0 0.00 0.00 0.00 66 1006.2
20260906122401 58 290 2.0 5.0 0.00 0.00 0.00 67 1006.1
20260906122202 58 290 1.0 5.0 0.00 0.00 0.00 68 1006.1
20260906121630 57 290 1.0 5.0 0.00 0.00 0.00 69 1006.0
20260906121427 57 290 1.0 5.0 0.00 0.00 0.00 70 1006.1
20260906121225 56 290 1.0 5.0 0.00 0.00 0.00 71 1006.0
20260906120328 54 290 0.0 3.0 0.00 0.00 0.00 74 1006.1
20260906120125 54 290 0.0 1.0 0.00 0.00 0.00 76 1006.1
20260906115916 54 290 0.0 0.0 0.00 0.00 0.00 75 1006.1
20260906115709 54 290 0.0 0.0 0.00 0.00 0.00 76 1006.2
20260906115509 54 290 0.0 0.0 0.00 0.00 0.00 76 1006.1
20260906115309 54 290 0.0 3.0 0.00 0.00 0.00 76 1006.1
20260906114423 52 290 0.0 1.0 0.00 0.00 0.00 79 1006.0
20260906114217 52 290 0.0 3.0 0.00 0.00 0.00 79 1006.0
20260906114012 52 290 0.0 3.0 0.00 0.00 0.00 79 1006.0
20260906112810 52 265 0.0 0.0 0.00 0.00 0.00 80 1005.9
20260906112600 52 265 0.0 0.0 0.00 0.00 0.00 80 1005.8
20260906112035 52 265 0.0 1.0 0.00 0.00 0.00 80 1005.8
20260906111827 52 265 0.0 1.0 0.00 0.00 0.00 81 1005.8
20260906111624 52 265 0.0 1.0 0.00 0.00 0.00 81 1005.7
20260906111417 52 265 0.0 1.0 0.00 0.00 0.00 81 1005.6
20260906111209 52 265 0.0 0.0 0.00 0.00 0.00 81 1005.6
20260906110958 52 265 0.0 0.0 0.00 0.00 0.00 81 1005.7
20260906110757 52 265 0.0 3.0 0.00 0.00 0.00 80 1005.7
20260906110555 52 265 0.0 3.0 0.00 0.00 0.00 80 1005.7
20260906110025 52 265 0.0 2.0 0.00 0.00 0.00 80 1005.6
20260906105816 52 265 0.0 0.0 0.00 0.00 0.00 81 1005.6
20260906105616 52 265 0.0 0.0 0.00 0.00 0.00 81 1005.6
20260906105407 52 265 0.0 0.0 0.00 0.00 0.00 81 1005.5
20260906105204 52 265 0.0 0.0 0.00 0.00 0.00 81 1005.5
20260906104650 52 265 0.0 1.0 0.00 0.00 0.00 80 1005.5
20260906104127 53 265 0.0 0.0 0.00 0.00 0.00 80 1005.6
20260906103921 53 265 0.0 0.0 0.00 0.00 0.00 80 1005.6
20260906103719 53 265 0.0 1.0 0.00 0.00 0.00 80 1005.6
20260906103518 53 265 0.0 1.0 0.00 0.00 0.00 80 1005.7
20260906103311 53 265 0.0 1.0 0.00 0.00 0.00 80 1005.7
20260906103106 53 265 0.0 1.0 0.00 0.00 0.00 80 1005.6
20260906102902 53 265 0.0 1.0 0.00 0.00 0.00 80 1005.6
20260906102336 53 265 0.0 0.0 0.00 0.00 0.00 80 1005.7
20260906102129 53 265 0.0 1.0 0.00 0.00 0.00 80 1005.7
20260906101926 53 265 0.0 1.0 0.00 0.00 0.00 80 1005.7
20260906101357 54 265 0.0 1.0 0.00 0.00 0.00 79 1005.6
20260906101147 54 265 0.0 1.0 0.00 0.00 0.00 79 1005.7
20260906100936 54 265 0.0 0.0 0.00 0.00 0.00 80 1005.7
20260906100737 54 265 0.0 0.0 0.00 0.00 0.00 79 1005.7
20260906100528 54 265 0.0 0.0 0.00 0.00 0.00 79 1005.7
20260906100321 54 265 0.0 0.0 0.00 0.00 0.00 79 1005.6
20260906100112 55 265 0.0 0.0 0.00 0.00 0.00 79 1005.7
20260906095909 55 265 0.0 0.0 0.00 0.00 0.00 79 1005.7
20260906095344 55 265 0.0 3.0 0.00 0.00 0.00 80 1005.8
20260906095141 55 265 0.0 3.0 0.00 0.00 0.00 80 1005.8
20260906094937 55 265 0.0 3.0 0.00 0.00 0.00 80 1005.9
20260906094736 55 265 1.0 3.0 0.00 0.00 0.00 80 1005.8
20260906094530 55 265 1.0 3.0 0.00 0.00 0.00 80 1005.9
20260906094321 55 265 1.0 3.0 0.00 0.00 0.00 79 1005.8
20260906094111 55 265 1.0 2.0 0.00 0.00 0.00 79 1005.8
20260906093906 56 265 0.0 1.0 0.00 0.00 0.00 79 1005.7
20260906093659 56 265 0.0 1.0 0.00 0.00 0.00 78 1005.6
20260906093456 56 265 0.0 1.0 0.00 0.00 0.00 78 1005.7
20260906093248 56 265 0.0 1.0 0.00 0.00 0.00 78 1005.7
20260906093038 56 265 0.0 0.0 0.00 0.00 0.00 77 1005.7
20260906092832 57 265 0.0 0.0 0.00 0.00 0.00 78 1005.7
20260906092306 57 265 0.0 1.0 0.00 0.00 0.00 78 1005.7
20260906092056 57 265 0.0 1.0 0.00 0.00 0.00 78 1005.7
20260906091855 58 265 0.0 1.0 0.00 0.00 0.00 78 1005.7
20260906091644 58 265 0.0 0.0 0.00 0.00 0.00 77 1005.6
20260906090756 58 265 0.0 3.0 0.00 0.00 0.00 79 1005.4
20260906090548 58 265 1.0 3.0 0.00 0.00 0.00 79 1005.3
20260906090024 58 265 0.0 3.0 0.00 0.00 0.00 80 1005.3
20260906085817 59 265 0.0 3.0 0.00 0.00 0.00 80 1005.3
20260906085614 59 265 0.0 3.0 0.00 0.00 0.00 81 1005.3
20260906085411 59 265 0.0 0.0 0.00 0.00 0.00 81 1005.3
20260906085201 59 265 0.0 0.0 0.00 0.00 0.00 81 1005.3
20260906084639 59 265 0.0 0.0 0.00 0.00 0.00 81 1005.3
20260906084429 59 265 0.0 0.0 0.00 0.00 0.00 82 1005.3
20260906084227 59 265 0.0 0.0 0.00 0.00 0.00 82 1005.3
20260906084027 59 265 0.0 0.0 0.00 0.00 0.00 82 1005.3
20260906083821 59 265 0.0 0.0 0.00 0.00 0.00 82 1005.4
20260906083615 59 265 0.0 3.0 0.00 0.00 0.00 81 1005.4
20260906083408 59 265 1.0 3.0 0.00 0.00 0.00 81 1005.4
20260906083158 59 265 0.0 2.0 0.00 0.00 0.00 81 1005.5
20260906082308 59 265 0.0 0.0 0.00 0.00 0.00 80 1005.4
20260906082105 59 265 0.0 0.0 0.00 0.00 0.00 80 1005.4
20260906081858 59 265 0.0 0.0 0.00 0.00 0.00 80 1005.4
20260906081648 59 265 0.0 0.0 0.00 0.00 0.00 80 1005.3
20260906081445 59 265 0.0 0.0 0.00 0.00 0.00 80 1005.4
20260906081244 59 265 0.0 0.0 0.00 0.00 0.00 80 1005.5
20260906081037 59 265 0.0 0.0 0.00 0.00 0.00 80 1005.4
20260906080829 59 265 0.0 0.0 0.00 0.00 0.00 80 1005.5
20260906080630 59 265 0.0 0.0 0.00 0.00 0.00 80 1005.5
20260906080110 59 265 0.0 0.0 0.00 0.00 0.00 80 1005.4
20260906075545 59 265 0.0 3.0 0.00 0.00 0.00 80 1005.5
20260906075338 59 265 0.0 3.0 0.00 0.00 0.00 80 1005.4
20260906075132 59 265 0.0 3.0 0.00 0.00 0.00 80 1005.5
20260906074931 59 265 0.0 3.0 0.00 0.00 0.00 80 1005.4
20260906074727 59 265 0.0 3.0 0.00 0.00 0.00 80 1005.4
20260906074522 59 265 1.0 3.0 0.00 0.00 0.00 80 1005.4
20260906074317 59 265 1.0 3.0 0.00 0.00 0.00 80 1005.4
20260906074113 59 265 1.0 3.0 0.00 0.00 0.00 80 1005.4
20260906073912 59 265 1.0 3.0 0.00 0.00 0.00 80 1005.4
20260906073703 59 265 1.0 3.0 0.00 0.00 0.00 79 1005.5
20260906073142 60 265 0.0 1.0 0.00 0.00 0.00 78 1005.6
20260906072941 60 265 0.0 1.0 0.00 0.00 0.00 77 1005.6
20260906072733 60 265 0.0 0.0 0.00 0.00 0.00 77 1005.6
20260906072527 60 265 0.0 0.0 0.00 0.00 0.00 77 1005.7
20260906071951 60 265 0.0 0.0 0.00 0.00 0.00 76 1005.7
20260906071751 60 265 0.0 1.0 0.00 0.00 0.00 77 1005.6
20260906071219 60 265 0.0 0.0 0.00 0.00 0.00 76 1005.6
20260906071011 60 265 0.0 0.0 0.00 0.00 0.00 76 1005.6
20260906070810 60 265 0.0 0.0 0.00 0.00 0.00 77 1005.6
20260906070608 60 265 0.0 0.0 0.00 0.00 0.00 77 1005.6
20260906070401 60 265 0.0 0.0 0.00 0.00 0.00 77 1005.6
20260906065828 60 265 0.0 0.0 0.00 0.00 0.00 77 1005.7
20260906065617 60 265 0.0 0.0 0.00 0.00 0.00 77 1005.7
20260906065414 60 265 0.0 0.0 0.00 0.00 0.00 78 1005.7
20260906065206 60 265 0.0 0.0 0.00 0.00 0.00 78 1005.7
20260906065005 60 265 0.0 4.0 0.00 0.00 0.00 78 1005.8
20260906064445 60 265 1.0 4.0 0.00 0.00 0.00 78 1005.9
20260906064235 60 265 1.0 4.0 0.00 0.00 0.00 79 1005.8
20260906064031 60 265 0.0 4.0 0.00 0.00 0.00 79 1005.9
20260906063826 60 265 0.0 4.0 0.00 0.00 0.00 79 1005.7
20260906063625 60 265 0.0 1.0 0.00 0.00 0.00 79 1005.7
20260906063055 60 265 0.0 0.0 0.00 0.00 0.00 80 1005.6
20260906062847 60 265 1.0 4.0 0.00 0.00 0.00 80 1005.6
20260906062641 60 265 1.0 6.0 0.00 0.00 0.00 80 1005.7
20260906062433 59 265 1.0 6.0 0.00 0.00 0.00 80 1005.7
20260906062228 59 265 1.0 6.0 0.00 0.00 0.00 80 1005.7
20260906062022 59 290 1.0 6.0 0.00 0.00 0.00 81 1005.8
20260906061812 59 290 2.0 6.0 0.00 0.00 0.00 82 1005.8
20260906061609 59 292 2.0 6.0 0.00 0.00 0.00 82 1005.8
20260906061400 58 292 3.0 6.0 0.00 0.00 0.00 82 1005.6
20260906061200 58 292 2.0 6.0 0.00 0.00 0.00 82 1005.6
20260906060955 58 292 2.0 6.0 0.00 0.00 0.00 82 1005.5
20260906060754 58 285 0.0 6.0 0.00 0.00 0.00 81 1005.4
20260906060234 58 180 0.0 0.0 0.00 0.00 0.00 80 1005.3
20260906055353 58 180 0.0 0.0 0.00 0.00 0.00 79 1005.1
20260906055145 58 180 0.0 1.0 0.00 0.00 0.00 79 1005.1
20260906054937 58 180 0.0 1.0 0.00 0.00 0.00 78 1005.1
20260906054730 59 180 0.0 1.0 0.00 0.00 0.00 77 1005.1
20260906054527 59 180 0.0 0.0 0.00 0.00 0.00 78 1005.1
20260906054318 59 180 0.0 0.0 0.00 0.00 0.00 77 1005.1
20260906053438 59 180 0.0 0.0 0.00 0.00 0.00 76 1005.0
20260906053233 60 180 0.0 0.0 0.00 0.00 0.00 76 1005.1
20260906052348 60 180 1.0 3.0 0.00 0.00 0.00 77 1005.0
20260906051816 60 180 0.0 2.0 0.00 0.00 0.00 76 1005.0
20260906051606 61 180 0.0 1.0 0.00 0.00 0.00 75 1005.1
20260906051357 61 180 0.0 1.0 0.00 0.00 0.00 75 1005.1
20260906051147 61 180 0.0 0.0 0.00 0.00 0.00 75 1005.0
20260906050937 61 180 0.0 0.0 0.00 0.00 0.00 75 1005.0
20260906050738 61 180 0.0 1.0 0.00 0.00 0.00 75 1005.0
20260906050538 61 180 0.0 1.0 0.00 0.00 0.00 75 1005.1
20260906050336 61 180 0.0 1.0 0.00 0.00 0.00 75 1005.1
20260906045817 62 180 1.0 2.0 0.00 0.00 0.00 75 1005.2
20260906045610 62 180 0.0 2.0 0.00 0.00 0.00 75 1005.2
20260906045406 62 180 0.0 2.0 0.00 0.00 0.00 75 1005.2
20260906045206 62 180 0.0 2.0 0.00 0.00 0.00 75 1005.3
20260906044641 63 180 0.0 1.0 0.00 0.00 0.00 74 1005.2
20260906043426 63 180 0.0 4.0 0.00 0.00 0.00 73 1005.3
20260906043226 63 180 0.0 4.0 0.00 0.00 0.00 73 1005.2
20260906043018 64 180 0.0 4.0 0.00 0.00 0.00 73 1005.2
20260906042819 64 180 0.0 4.0 0.00 0.00 0.00 73 1005.3
20260906042614 64 180 1.0 4.0 0.00 0.00 0.00 73 1005.4
20260906042403 64 180 1.0 4.0 0.00 0.00 0.00 73 1005.3
20260906042201 64 180 1.0 4.0 0.00 0.00 0.00 73 1005.4
20260906041953 64 180 1.0 4.0 0.00 0.00 0.00 73 1005.3
20260906041745 64 180 1.0 4.0 0.00 0.00 0.00 72 1005.4
20260906041537 64 173 0.0 3.0 0.00 0.00 0.00 72 1005.3
20260906041336 64 173 0.0 3.0 0.00 0.00 0.00 72 1005.3
20260906041129 65 173 0.0 1.0 0.00 0.00 0.00 72 1005.3
20260906040926 65 173 0.0 1.0 0.00 0.00 0.00 72 1005.3
20260906040716 65 173 0.0 1.0 0.00 0.00 0.00 71 1005.3
20260906040514 65 173 0.0 0.0 0.00 0.00 0.00 71 1005.3
20260906035632 65 173 0.0 0.0 0.00 0.00 0.00 71 1005.3
20260906035429 66 173 0.0 0.0 0.00 0.00 0.00 70 1005.4
20260906035220 66 173 0.0 0.0 0.00 0.00 0.00 70 1005.4
20260906035012 66 173 0.0 0.0 0.00 0.00 0.00 70 1005.3
20260906034811 66 173 0.0 0.0 0.00 0.00 0.00 70 1005.4
20260906034601 66 173 0.0 1.0 0.00 0.00 0.00 70 1005.4
20260906034352 66 173 0.0 7.0 0.00 0.00 0.00 71 1005.4
20260906034152 66 173 0.0 7.0 0.00 0.00 0.00 70 1005.3
20260906033944 66 173 0.0 3.0 0.00 0.00 0.00 70 1005.4
20260906033741 66 173 0.0 3.0 0.00 0.00 0.00 70 1005.4
20260906033538 66 173 0.0 3.0 0.00 0.00 0.00 70 1005.4
20260906033334 66 173 1.0 3.0 0.00 0.00 0.00 70 1005.4
20260906033133 66 173 1.0 3.0 0.00 0.00 0.00 70 1005.4
20260906032934 66 173 1.0 0.0 0.00 0.00 0.00 69 1005.3
20260906032735 67 173 1.0 7.0 0.00 0.00 0.00 69 1005.4
20260906032212 67 128 0.0 1.0 0.00 0.00 0.00 69 1005.3
20260906032007 67 128 0.0 1.0 0.00 0.00 0.00 68 1005.2
20260906031808 67 128 0.0 1.0 0.00 0.00 0.00 68 1005.3
20260906031558 67 128 0.0 1.0 0.00 0.00 0.00 68 1005.3
20260906031359 67 128 0.0 1.0 0.00 0.00 0.00 68 1005.3
20260906031158 67 128 0.0 0.0 0.00 0.00 0.00 68 1005.3
20260906030949 67 128 0.0 2.0 0.00 0.00 0.00 68 1005.3
20260906030738 67 128 0.0 1.0 0.00 0.00 0.00 68 1005.4
20260906030535 67 128 0.0 0.0 0.00 0.00 0.00 67 1005.3
20260906030331 67 128 0.0 0.0 0.00 0.00 0.00 67 1005.3
20260906025810 68 128 0.0 4.0 0.00 0.00 0.00 67 1005.1
20260906025609 68 128 0.0 4.0 0.00 0.00 0.00 67 1005.1
20260906025406 68 128 0.0 1.0 0.00 0.00 0.00 67 1005.0
20260906025207 68 128 0.0 1.0 0.00 0.00 0.00 67 1005.0
20260906025007 68 128 0.0 4.0 0.00 0.00 0.00 67 1004.9
20260906024804 68 128 0.0 5.0 0.00 0.00 0.00 66 1004.9
20260906024603 68 128 0.0 5.0 0.00 0.00 0.00 66 1005.0
20260906024353 68 128 0.0 5.0 0.00 0.00 0.00 66 1005.0
20260906023830 68 126 0.0 7.0 0.00 0.00 0.00 66 1005.0
20260906023630 68 130 0.0 7.0 0.00 0.00 0.00 66 1005.0
20260906023428 67 130 0.0 7.0 0.00 0.00 0.00 66 1005.0
20260906022854 67 126 1.0 7.0 0.00 0.00 0.00 65 1005.0
20260906022649 67 128 2.0 9.0 0.00 0.00 0.00 65 1005.0
20260906022450 67 128 2.0 9.0 0.00 0.00 0.00 65 1005.0
20260906022242 67 128 2.0 9.0 0.00 0.00 0.00 65 1005.0
20260906022041 67 170 2.0 9.0 0.00 0.00 0.00 63 1005.0
20260906021841 66 170 2.0 9.0 0.00 0.00 0.00 63 1004.9
20260906021635 66 171 2.0 9.0 0.00 0.00 0.00 62 1004.9
20260906021432 66 175 3.0 9.0 0.00 0.00 0.00 62 1004.9
20260906021223 66 139 3.0 9.0 0.00 0.00 0.00 61 1004.9
20260906021020 66 139 2.0 9.0 0.00 0.00 0.00 60 1004.7
20260906020449 65 36 0.0 5.0 0.00 0.00 0.00 50 1004.6
20260906020249 66 284 0.0 3.0 0.00 0.00 0.00 47 1004.5
20260906020049 66 291 0.0 1.0 0.00 0.00 0.00 47 1004.2
20260906015843 66 291 0.0 1.0 0.00 0.00 0.00 46 1004.1
20260906015635 67 291 0.0 1.0 0.00 0.00 0.00 46 1004.1
20260906015427 67 291 0.0 0.0 0.00 0.00 0.00 45 1004.1
20260906014537 68 291 0.0 1.0 0.00 0.00 0.00 43 1004.1
20260906014334 69 291 0.0 0.0 0.00 0.00 0.00 43 1004.0
20260906014127 70 291 0.0 0.0 0.00 0.00 0.00 42 1004.1
20260906013926 70 291 0.0 0.0 0.00 0.00 0.00 41 1004.0
20260906013727 71 291 0.0 0.0 0.00 0.00 0.00 41 1004.1
20260906013522 71 291 0.0 0.0 0.00 0.00 0.00 42 1004.1
20260906013314 72 291 0.0 0.0 0.00 0.00 0.00 40 1004.1
20260906013111 72 291 0.0 0.0 0.00 0.00 0.00 41 1004.0
20260906012539 73 291 0.0 0.0 0.00 0.00 0.00 38 1004.0
20260906012332 73 291 0.0 0.0 0.00 0.00 0.00 37 1004.0
20260906012128 74 291 0.0 0.0 0.00 0.00 0.00 37 1004.0
20260906011600 75 291 0.0 0.0 0.00 0.00 0.00 35 1004.0
20260906011353 75 291 0.0 0.0 0.00 0.00 0.00 35 1004.1
20260906011146 76 291 0.0 0.0 0.00 0.00 0.00 34 1004.1
20260906010936 76 291 0.0 0.0 0.00 0.00 0.00 34 1004.1
20260906010727 76 291 0.0 0.0 0.00 0.00 0.00 34 1004.0
20260906010518 76 291 0.0 4.0 0.00 0.00 0.00 33 1004.1
20260906010318 76 291 0.0 4.0 0.00 0.00 0.00 33 1004.2
20260906005450 77 291 1.0 6.0 0.00 0.00 0.00 32 1004.3
20260906004923 77 291 1.0 6.0 0.00 0.00 0.00 32 1004.4
20260906004717 77 290 2.0 8.0 0.00 0.00 0.00 33 1004.4
20260906004513 77 327 2.0 8.0 0.00 0.00 0.00 32 1004.4
20260906004303 77 331 2.0 8.0 0.00 0.00 0.00 32 1004.4
20260906003735 77 275 3.0 8.0 0.00 0.00 0.00 32 1004.4
20260906003534 77 274 3.0 8.0 0.00 0.00 0.00 32 1004.4
20260906003325 77 274 3.0 8.0 0.00 0.00 0.00 31 1004.5
20260906003124 78 274 3.0 8.0 0.00 0.00 0.00 31 1004.4
20260906002913 78 277 2.0 8.0 0.00 0.00 0.00 31 1004.3
20260906002707 79 283 1.0 7.0 0.00 0.00 0.00 30 1004.3
20260906002503 79 42 0.0 3.0 0.00 0.00 0.00 34 1004.3
20260906001946 80 42 0.0 1.0 0.00 0.00 0.00 30 1004.2
20260906001735 80 42 0.0 1.0 0.00 0.00 0.00 33 1004.2
20260906001531 80 42 0.0 1.0 0.00 0.00 0.00 29 1004.2
20260906001332 81 42 0.0 0.0 0.00 0.00 0.00 31 1004.2
20260906001128 81 42 0.0 0.0 0.00 0.00 0.00 29 1004.2
20260906000921 81 42 0.0 0.0 0.00 0.00 0.00 30 1004.2
20260906000717 81 42 0.0 0.0 0.00 0.00 0.00 28 1004.2
20260906000152 81 42 0.0 0.0 0.00 0.00 0.00 29 1004.1
20260905235948 81 42 0.0 0.0 0.00 0.00 0.00 28 1004.1
20260905235425 81 42 0.0 1.0 0.00 0.00 0.00 28 1004.0
20260905235223 81 42 0.0 1.0 0.00 0.00 0.00 29 1004.0
20260905235018 81 42 0.0 1.0 0.00 0.00 0.00 27 1004.0
20260905234814 81 42 0.0 1.0 0.00 0.00 0.00 29 1003.9
20260905234606 81 42 0.0 0.0 0.00 0.00 0.00 27 1004.0
20260905234356 81 42 1.0 4.0 0.00 0.00 0.00 27 1003.9
20260905234152 81 42 1.0 4.0 0.00 0.00 0.00 27 1004.0
20260905233946 81 42 0.0 4.0 0.00 0.00 0.00 27 1003.9
20260905233744 81 42 0.0 4.0 0.00 0.00 0.00 27 1003.9
20260905233543 81 42 1.0 4.0 0.00 0.00 0.00 28 1003.9
20260905233335 81 42 1.0 4.0 0.00 0.00 0.00 27 1003.9
20260905233127 81 42 1.0 4.0 0.00 0.00 0.00 28 1003.8
20260905232921 81 42 1.0 4.0 0.00 0.00 0.00 28 1003.8
20260905232717 81 42 2.0 4.0 0.00 0.00 0.00 27 1003.8
20260905232512 81 42 1.0 5.0 0.00 0.00 0.00 27 1003.8
20260905232313 81 42 1.0 5.0 0.00 0.00 0.00 28 1003.8
20260905231746 81 42 1.0 5.0 0.00 0.00 0.00 28 1003.7
20260905231544 81 42 2.0 5.0 0.00 0.00 0.00 28 1003.7
20260905231022 80 42 1.0 5.0 0.00 0.00 0.00 29 1003.6
20260905230816 80 36 1.0 5.0 0.00 0.00 0.00 28 1003.7
20260905225925 80 35 1.0 6.0 0.00 0.00 0.00 30 1003.5
20260905225719 80 35 2.0 6.0 0.00 0.00 0.00 29 1003.5
20260905225511 80 34 2.0 6.0 0.00 0.00 0.00 30 1003.5
20260905225305 80 34 3.0 6.0 0.00 0.00 0.00 30 1003.6
20260905225102 80 34 3.0 6.0 0.00 0.00 0.00 28 1003.6
20260905224853 80 32 3.0 6.0 0.00 0.00 0.00 29 1003.6
20260905224651 80 31 2.0 6.0 0.00 0.00 0.00 28 1003.6
20260905224444 80 28 1.0 5.0 0.00 0.00 0.00 29 1003.7
20260905224235 80 25 1.0 5.0 0.00 0.00 0.00 29 1003.8
20260905224028 80 44 0.0 4.0 0.00 0.00 0.00 28 1003.8
20260905223819 80 44 0.0 4.0 0.00 0.00 0.00 28 1003.9
20260905223618 81 44 0.0 4.0 0.00 0.00 0.00 29 1003.9
20260905223418 81 44 0.0 4.0 0.00 0.00 0.00 28 1004.0
20260905223213 81 44 1.0 5.0 0.00 0.00 0.00 28 1004.0
20260905223010 81 44 1.0 5.0 0.00 0.00 0.00 28 1003.9
20260905222446 81 44 2.0 5.0 0.00 0.00 0.00 28 1003.9
20260905222238 81 44 1.0 7.0 0.00 0.00 0.00 28 1003.9
20260905222036 81 44 1.0 7.0 0.00 0.00 0.00 28 1003.8
20260905221836 81 44 2.0 7.0 0.00 0.00 0.00 28 1003.8
20260905221631 81 317 2.0 7.0 0.00 0.00 0.00 28 1003.8
20260905221107 80 191 2.0 7.0 0.00 0.00 0.00 29 1003.9
20260905220907 80 191 2.0 7.0 0.00 0.00 0.00 30 1003.9
20260905220659 80 191 1.0 7.0 0.00 0.00 0.00 29 1004.0
20260905220458 80 191 1.0 7.0 0.00 0.00 0.00 29 1003.9
20260905220254 80 238 1.0 6.0 0.00 0.00 0.00 30 1003.9
20260905220047 80 280 1.0 7.0 0.00 0.00 0.00 29 1003.9
20260905215847 80 18 1.0 7.0 0.00 0.00 0.00 29 1003.8
20260905215638 80 18 1.0 7.0 0.00 0.00 0.00 29 1003.9
20260905215436 80 18 1.0 7.0 0.00 0.00 0.00 29 1003.9
20260905215232 80 18 1.0 7.0 0.00 0.00 0.00 29 1003.9
20260905215027 80 160 1.0 7.0 0.00 0.00 0.00 30 1003.9
20260905214821 80 160 2.0 7.0 0.00 0.00 0.00 31 1004.0
20260905214622 80 160 2.0 7.0 0.00 0.00 0.00 31 1004.1
20260905214056 80 168 2.0 6.0 0.00 0.00 0.00 32 1004.2
20260905213853 80 74 2.0 6.0 0.00 0.00 0.00 33 1004.3
20260905213646 80 67 2.0 6.0 0.00 0.00 0.00 31 1004.3
20260905213442 80 117 1.0 6.0 0.00 0.00 0.00 30 1004.3
20260905213236 80 102 1.0 6.0 0.00 0.00 0.00 29 1004.3
20260905213026 80 151 1.0 6.0 0.00 0.00 0.00 30 1004.5
20260905212816 80 152 1.0 6.0 0.00 0.00 0.00 29 1004.5
20260905212613 80 152 1.0 6.0 0.00 0.00 0.00 29 1004.5
20260905212405 80 152 1.0 6.0 0.00 0.00 0.00 29 1004.5